When you browse on this site, cookies collect data to enhance your experience and personalize the content and advertising you see.
Visit our Privacy Policy to learn more. By continuing to use the site, you agree to this use of cookies and data.
  • In Deutschland
  • Länderverzeichnis
  • Für 7 Tage
  • Wassertemperatur
  • Satellitenkarten
  • Wetterkarte
  • Widgets
  • user-avatar
    Anmelden

    Stündliche Wetter Krawcowizna

    Heute, 20 Mai, Montag

    Zeit Temperatur Niederschläge Wind Luftdruck Luftfeuchtigkeit
    00:00 +15°C° 0 mm 4 m/S 746 mmHg 95%
    01:00 +15°C° 0 mm 4 m/S 745 mmHg 96%
    02:00 +15°C° 0 mm 4 m/S 745 mmHg 96%
    03:00 +15°C° 0 mm 4 m/S 745 mmHg 97%
    04:00 +15°C° 0 mm 4 m/S 745 mmHg 97%
    05:00 +17°C° 0 mm 4 m/S 745 mmHg 95%
    06:00 +17°C° 0 mm 5 m/S 745 mmHg 93%
    07:00 +19°C° 0 mm 5 m/S 744 mmHg 91%
    08:00 +20°C° 0 mm 6 m/S 744 mmHg 89%
    09:00 +20°C° 0 mm 6 m/S 744 mmHg 86%
    10:00 +21°C° 0 mm 7 m/S 745 mmHg 84%
    11:00 +22°C° 0 mm 6 m/S 744 mmHg 79%
    12:00 +24°C° 0 mm 6 m/S 744 mmHg 75%
    13:00 +26°C° 0 mm 6 m/S 744 mmHg 70%
    14:00 +26°C° 0.5 mm 6 m/S 744 mmHg 72%
    15:00 +24°C° 0.5 mm 6 m/S 743 mmHg 74%
    16:00 +24°C° 0.5 mm 6 m/S 743 mmHg 75%
    17:00 +23°C° 1.1 mm 5 m/S 743 mmHg 78%
    18:00 +21°C° 1.1 mm 5 m/S 743 mmHg 81%
    19:00 +20°C° 1.1 mm 4 m/S 743 mmHg 84%
    20:00 +20°C° 1 mm 4 m/S 743 mmHg 86%
    21:00 +19°C° 1 mm 4 m/S 743 mmHg 89%
    22:00 +18°C° 1 mm 3 m/S 743 mmHg 91%
    23:00 +17°C° 0.2 mm 3 m/S 743 mmHg 93%

    Morgen, 21 Mai, Dienstag

    Zeit Temperatur Niederschläge Wind Luftdruck Luftfeuchtigkeit
    00:00 +17°C° 0.2 mm 3 m/S 743 mmHg 94%
    01:00 +16°C° 0.2 mm 3 m/S 743 mmHg 96%
    02:00 +16°C° 0 mm 3 m/S 743 mmHg 96%
    03:00 +16°C° 0 mm 3 m/S 743 mmHg 96%
    04:00 +16°C° 0 mm 3 m/S 743 mmHg 96%
    05:00 +17°C° 0.3 mm 4 m/S 743 mmHg 93%
    06:00 +18°C° 0.3 mm 4 m/S 743 mmHg 91%
    07:00 +19°C° 0.3 mm 5 m/S 743 mmHg 89%
    08:00 +19°C° 0.1 mm 5 m/S 743 mmHg 89%
    09:00 +19°C° 0.1 mm 5 m/S 743 mmHg 88%
    10:00 +19°C° 0.1 mm 5 m/S 743 mmHg 88%
    11:00 +19°C° 0.1 mm 6 m/S 742 mmHg 83%
    12:00 +20°C° 0.1 mm 6 m/S 742 mmHg 79%
    13:00 +21°C° 0.1 mm 7 m/S 742 mmHg 74%
    14:00 +21°C° 0.3 mm 7 m/S 741 mmHg 74%
    15:00 +21°C° 0.3 mm 7 m/S 741 mmHg 74%
    16:00 +21°C° 0.3 mm 7 m/S 741 mmHg 74%
    17:00 +18°C° 0.1 mm 7 m/S 741 mmHg 78%
    18:00 +17°C° 0.1 mm 6 m/S 741 mmHg 81%
    19:00 +15°C° 0.1 mm 6 m/S 741 mmHg 84%
    20:00 +15°C° 0 mm 6 m/S 741 mmHg 86%
    21:00 +15°C° 0 mm 6 m/S 741 mmHg 89%
    22:00 +15°C° 0 mm 7 m/S 742 mmHg 91%
    23:00 +14°C° 0 mm 6 m/S 742 mmHg 90%

    übermorgen, 22 Mai, Mittwoch

    Zeit Temperatur Niederschläge Wind Luftdruck Luftfeuchtigkeit
    00:00 +14°C° 0 mm 6 m/S 742 mmHg 89%
    01:00 +14°C° 0 mm 6 m/S 742 mmHg 89%
    02:00 +14°C° 0 mm 6 m/S 742 mmHg 89%
    03:00 +14°C° 0 mm 6 m/S 742 mmHg 89%
    04:00 +14°C° 0 mm 5 m/S 742 mmHg 90%
    05:00 +14°C° 0 mm 5 m/S 743 mmHg 89%
    06:00 +14°C° 0 mm 5 m/S 743 mmHg 89%
    07:00 +15°C° 0 mm 5 m/S 743 mmHg 88%
    08:00 +16°C° 0 mm 5 m/S 743 mmHg 84%
    09:00 +17°C° 0 mm 5 m/S 743 mmHg 79%
    10:00 +19°C° 0 mm 5 m/S 743 mmHg 75%
    11:00 +20°C° 0.7 mm 5 m/S 743 mmHg 75%
    12:00 +20°C° 0.7 mm 5 m/S 743 mmHg 75%
    13:00 +20°C° 0.7 mm 5 m/S 743 mmHg 75%
    14:00 +20°C° 0.8 mm 5 m/S 743 mmHg 76%
    15:00 +20°C° 0.8 mm 5 m/S 743 mmHg 77%
    16:00 +20°C° 0.8 mm 5 m/S 743 mmHg 78%
    17:00 +19°C° 0.1 mm 4 m/S 743 mmHg 81%
    18:00 +18°C° 0.1 mm 3 m/S 743 mmHg 85%
    19:00 +17°C° 0.1 mm 3 m/S 743 mmHg 89%
    20:00 +16°C° 0.1 mm 3 m/S 743 mmHg 91%
    21:00 +14°C° 0.1 mm 3 m/S 743 mmHg 93%
    22:00 +14°C° 0.1 mm 3 m/S 744 mmHg 96%
    23:00 +14°C° 0.4 mm 3 m/S 744 mmHg 96%

    23 Mai, Donnerstag

    Zeit Temperatur Niederschläge Wind Luftdruck Luftfeuchtigkeit
    00:00 +13°C° 0.4 mm 3 m/S 744 mmHg 97%
    01:00 +13°C° 0.4 mm 3 m/S 743 mmHg 97%
    02:00 +14°C° 0.1 mm 2 m/S 744 mmHg 97%
    03:00 +14°C° 0.1 mm 2 m/S 744 mmHg 96%
    04:00 +13°C° 0.1 mm 2 m/S 744 mmHg 96%
    05:00 +14°C° 0 mm 2 m/S 744 mmHg 94%
    06:00 +15°C° 0 mm 2 m/S 744 mmHg 92%
    07:00 +16°C° 0 mm 1 m/S 745 mmHg 89%
    08:00 +16°C° 0.1 mm 1 m/S 745 mmHg 87%
    09:00 +18°C° 0.1 mm 1 m/S 745 mmHg 85%
    10:00 +17°C° 0.1 mm 0 m/S 746 mmHg 83%
    11:00 +18°C° 0.8 mm 2 m/S 746 mmHg 82%
    12:00 +19°C° 0.8 mm 3 m/S 746 mmHg 81%
    13:00 +20°C° 0.8 mm 4 m/S 746 mmHg 79%
    14:00 +19°C° 0.9 mm 5 m/S 746 mmHg 82%
    15:00 +17°C° 0.9 mm 5 m/S 747 mmHg 84%
    16:00 +16°C° 0.9 mm 6 m/S 747 mmHg 87%
    17:00 +15°C° 0.1 mm 6 m/S 747 mmHg 87%
    18:00 +14°C° 0.1 mm 6 m/S 747 mmHg 87%
    19:00 +13°C° 0.1 mm 6 m/S 748 mmHg 87%
    20:00 +11°C° 0 mm 6 m/S 748 mmHg 86%
    21:00 +10°C° 0 mm 5 m/S 748 mmHg 84%
    22:00 +9°C° 0 mm 5 m/S 748 mmHg 83%
    23:00 +9°C° 0 mm 5 m/S 749 mmHg 82%

    24 Mai, Freitag

    Zeit Temperatur Niederschläge Wind Luftdruck Luftfeuchtigkeit
    00:00 +9°C° 0 mm 5 m/S 749 mmHg 81%
    01:00 +9°C° 0 mm 5 m/S 749 mmHg 81%
    02:00 +10°C° 0 mm 4 m/S 749 mmHg 81%
    03:00 +10°C° 0 mm 4 m/S 749 mmHg 82%
    04:00 +8°C° 0 mm 4 m/S 749 mmHg 83%
    05:00 +10°C° 0 mm 4 m/S 749 mmHg 82%
    06:00 +11°C° 0 mm 4 m/S 749 mmHg 81%
    07:00 +12°C° 0 mm 4 m/S 749 mmHg 79%
    08:00 +13°C° 0 mm 4 m/S 749 mmHg 74%
    09:00 +15°C° 0 mm 4 m/S 748 mmHg 68%
    10:00 +18°C° 0 mm 4 m/S 748 mmHg 63%
    11:00 +18°C° 0 mm 4 m/S 748 mmHg 60%
    12:00 +19°C° 0 mm 4 m/S 748 mmHg 58%
    13:00 +20°C° 0 mm 4 m/S 748 mmHg 55%
    14:00 +20°C° 0 mm 4 m/S 747 mmHg 56%
    15:00 +19°C° 0 mm 3 m/S 747 mmHg 57%
    16:00 +19°C° 0 mm 3 m/S 747 mmHg 58%
    17:00 +18°C° 0 mm 3 m/S 747 mmHg 63%
    18:00 +17°C° 0 mm 2 m/S 746 mmHg 68%
    19:00 +16°C° 0 mm 2 m/S 746 mmHg 73%
    20:00 +14°C° 0 mm 2 m/S 746 mmHg 77%
    21:00 +13°C° 0 mm 2 m/S 746 mmHg 82%
    22:00 +12°C° 0 mm 2 m/S 746 mmHg 86%
    23:00 +10°C° 0 mm 2 m/S 747 mmHg 88%

    25 Mai, Samstag

    Zeit Temperatur Niederschläge Wind Luftdruck Luftfeuchtigkeit
    00:00 +10°C° 0 mm 2 m/S 747 mmHg 90%
    01:00 +9°C° 0 mm 2 m/S 747 mmHg 91%
    02:00 +9°C° 0 mm 2 m/S 747 mmHg 91%
    03:00 +10°C° 0 mm 1 m/S 747 mmHg 90%
    04:00 +9°C° 0 mm 1 m/S 747 mmHg 90%
    05:00 +11°C° 0 mm 1 m/S 747 mmHg 83%
    06:00 +13°C° 0 mm 1 m/S 747 mmHg 76%
    07:00 +15°C° 0 mm 1 m/S 747 mmHg 70%
    08:00 +16°C° 0 mm 1 m/S 747 mmHg 65%
    09:00 +17°C° 0 mm 2 m/S 747 mmHg 60%
    10:00 +19°C° 0 mm 2 m/S 747 mmHg 56%
    11:00 +19°C° 0 mm 2 m/S 747 mmHg 53%
    12:00 +20°C° 0 mm 2 m/S 747 mmHg 50%
    13:00 +21°C° 0 mm 2 m/S 747 mmHg 48%
    14:00 +21°C° 0 mm 2 m/S 746 mmHg 49%
    15:00 +21°C° 0 mm 3 m/S 746 mmHg 50%
    16:00 +21°C° 0 mm 3 m/S 746 mmHg 51%
    17:00 +19°C° 0 mm 2 m/S 746 mmHg 56%
    18:00 +18°C° 0 mm 2 m/S 746 mmHg 61%
    19:00 +18°C° 0 mm 1 m/S 746 mmHg 67%
    20:00 +15°C° 0 mm 1 m/S 747 mmHg 69%
    21:00 +14°C° 0 mm 1 m/S 747 mmHg 71%
    22:00 +12°C° 0 mm 0 m/S 747 mmHg 73%
    23:00 +13°C° 0 mm 1 m/S 747 mmHg 74%
    Mehr zeigen